Location: Wheeling
(40.0640°N, 80.7210°W)
Time: 13:45:52
(UTC-05:00)

CUTE 1.7 + AOD 2 - Pass Details

Date: 05 November 2021
Orbit: 592 x 610 km, 97.6° (Epoch: 30 November)

Event Time Altitude Azimuth Distance (km) Brightness Sun altitude
Rises 06:16:23 0° 1° (N) 2,876 ? -19.6°
Reaches altitude 10° 06:18:45 10° 351° (N) 1,964 ? -19.1°
Enters shadow 06:20:18 19° 336° (NNW) 1,453 ? -18.8°
